Retour au catalogue

GEOSKAN-1

ActifScienceSSO
NORAD 64880·PAYLOAD·🇷🇺 Russia
Ce nom de satellite n'a pas encore été confirmé par des sources officielles.

Lancé Jul 25, 2025 depuis Vostochny Cosmodrome

Loading…

Prochains Passages (prochaines 24 heures)

TLE

FraisSource: Space-Track

Époque: Sep 14, 2026, 22:49 UTC

1 64880U 25155E   26257.95108725  .00011288  00000-0  36245-3 0  9996
2 64880  97.4663 227.2400 0006273 202.6146 157.4820 15.32450123 94511

Suivez GEOSKAN-1 en temps réel avec AllMySat

Download on the App Store